Stations météo

réclame
Mon MeteoGroup
Filton, Grande-Bretagne (3628): Température de l'air & dewpoint: 14.09.2018 17:00:00 - 20.09.2018 17:00:00 (BST)Filton, Grande-Bretagne (3628): Température de l'air -20cm & Température de l'air -100cm: 14.09.2018 17:00:00 - 20.09.2018 17:00:00 (BST)Filton, Grande-Bretagne (3628): Vitesse du vent & gusts: 14.09.2018 17:00:00 - 20.09.2018 17:00:00 (BST)Filton, Grande-Bretagne (3628): Direction du vent: 14.09.2018 17:00:00 - 20.09.2018 17:00:00 (BST)Filton, Grande-Bretagne (3628): reduced air pressure: 14.09.2018 17:00:00 - 20.09.2018 17:00:00 (BST)Filton, Grande-Bretagne (3628): visibility: 14.09.2018 17:00:00 - 20.09.2018 17:00:00 (BST)Filton, Grande-Bretagne (3628): Ensoleillement: 14.09.2018 17:00:00 - 20.09.2018 17:00:00 (BST)Filton, Grande-Bretagne (3628): Quantités de précipitations: 14.09.2018 17:00:00 - 20.09.2018 17:00:00 (BST)
Date & Time tt [°C] td [°C] tt -20cm [°C] tt -100cm [°C] ff [km/h] ff [knt] fx [km/h] fx [knt] dd ppp [hPa] vv [km] sd [min] rr [mm]
20.09.2018 17:00:00 18,1 15,9 - - 29 16 57 31 SSW 1004,5 35 0 0,0
20.09.2018 16:00:00 18,9 15,6 - - 35 19 59 32 SSW 1005,3 30 0 0,0
20.09.2018 15:00:00 18,9 15,6 - - 37 20 59 32 SSW 1005,9 30 0 0,0
20.09.2018 14:00:00 18,3 15,7 - - 35 19 59 32 SSW 1006,8 28 0 0,0
20.09.2018 13:00:00 17,6 16,1 - - 28 15 - - SSW 1007,6 30 0 0,0
20.09.2018 12:00:00 17,2 16,0 - - 26 14 - - SSW 1008,5 24 0 0,0
20.09.2018 11:00:00 15,3 15,3 - - 8 4 - - SSE 1009,2 26 0 0,4
20.09.2018 10:00:00 13,4 13,3 15,9 15,7 5 3 - - NE 1010,2 6 0 2,8
20.09.2018 09:00:00 13,1 13,0 - - 8 4 - - ESE 1010,4 9 0 0,0
20.09.2018 08:00:00 12,8 12,7 - - 5 3 - - SE 1010,6 21 0 1,0
20.09.2018 07:00:00 12,4 12,3 - - 5 3 - - NNW 1011,0 5 0 1,6
20.09.2018 06:00:00 12,1 12,0 - - 8 4 - - N 1010,3 6 0 1,6
20.09.2018 05:00:00 12,5 12,3 - - 5 3 - - E 1010,7 11 0 0,8
20.09.2018 04:00:00 12,2 12,1 - - 4 2 - - SE 1011,6 6 0 0,4
20.09.2018 03:00:00 12,3 12,1 - - 4 2 - - NNW 1012,1 5 0 1,6
20.09.2018 02:00:00 12,6 12,5 - - 8 4 - - W 1012,6 8 0 0,4
20.09.2018 01:00:00 12,6 12,4 - - 5 3 - - WSW 1013,0 3,5 - 0,4
20.09.2018 00:00:00 12,7 12,4 - - 11 6 - - WSW 1013,8 8 0 0,4
19.09.2018 23:00:00 12,6 12,2 - - 13 7 - - WSW 1014,0 6 0 0,4
19.09.2018 22:00:00 13,4 11,6 - - 21 11 - - W 1014,2 10 0 0,0
19.09.2018 21:00:00 14,2 12,1 - - 21 11 - - WSW 1013,9 19 0 0,2
19.09.2018 20:00:00 15,0 12,1 - - 16 9 - - WSW 1013,0 23 0 0,0
19.09.2018 19:00:00 15,1 11,8 - - 31 17 55 30 WSW 1012,9 25 0 0,0
19.09.2018 18:00:00 15,6 12,9 - - 34 18 48 26 W 1012,4 16 0 0,0
19.09.2018 17:00:00 15,6 14,5 - - 29 16 55 30 W 1011,7 6 0 0,2
19.09.2018 16:00:00 16,2 14,1 - - 37 20 54 29 W 1011,3 7 0 0,0
19.09.2018 15:00:00 20,1 13,7 - - 39 21 57 31 WSW 1010,1 45 6 0,0
19.09.2018 14:00:00 21,1 12,6 - - 39 21 67 36 SW 1009,7 45 30 0,0
19.09.2018 13:00:00 22,4 11,2 - - 48 26 68 37 WSW 1009,2 45 60 0,0
19.09.2018 12:00:00 21,4 12,1 - - 42 23 65 35 SW 1009,1 40 60 0,0
19.09.2018 11:00:00 19,6 13,7 - - 37 20 55 30 SW 1009,4 40 54 0,0
19.09.2018 10:00:00 18,4 14,4 16,2 15,7 28 15 54 29 SW 1009,2 45 36 0,0
19.09.2018 09:00:00 17,9 14,3 - - 26 14 46 25 SW 1009,4 35 60 0,0
19.09.2018 08:00:00 16,5 14,0 - - 22 12 - - SSW 1009,2 35 6 0,0
19.09.2018 07:00:00 15,6 13,4 - - 15 8 - - SSW 1009,7 30 0 0,0
19.09.2018 06:00:00 15,5 13,8 - - 18 10 - - SSW 1009,7 29 0 0,0
19.09.2018 05:00:00 15,6 14,4 - - 16 9 - - SSW 1009,8 29 0 0,0
19.09.2018 04:00:00 15,0 13,7 - - 9 5 - - SSW 1010,1 50 0 0,0
19.09.2018 03:00:00 15,2 13,5 - - 15 8 - - SSW 1010,4 55 0 0,0
19.09.2018 02:00:00 15,9 14,5 - - 13 7 - - SSW 1010,9 55 0 0,0
19.09.2018 01:00:00 16,1 14,9 - - 15 8 - - SSW 1010,5 45 - 1,2
19.09.2018 00:00:00 16,8 14,8 - - 18 10 - - SSW 1010,5 17 0 0,0
18.09.2018 23:00:00 17,6 14,3 - - 22 12 - - SSW 1010,4 40 0 0,0
18.09.2018 22:00:00 17,5 14,3 - - 18 10 - - SSW 1010,4 40 0 0,0
18.09.2018 21:00:00 17,9 14,3 - - 26 14 - - SSW 1010,1 45 0 0,0
18.09.2018 20:00:00 18,3 14,5 - - 26 14 - - SSW 1009,9 40 0 0,0
18.09.2018 19:00:00 18,8 14,3 - - 21 11 - - SSW 1009,6 50 0 0,0
18.09.2018 18:00:00 19,3 14,8 - - 18 10 - - SSW 1009,6 50 18 0,0
18.09.2018 17:00:00 18,9 15,8 - - 21 11 - - SW 1009,8 55 12 0,2
18.09.2018 16:00:00 17,3 16,3 - - 18 10 - - SW 1009,8 30 0 1,0
18.09.2018 15:00:00 18,7 14,8 - - 21 11 46 25 SW 1009,7 55 0 0,0
18.09.2018 14:00:00 18,8 14,3 - - 31 17 48 26 SW 1009,2 24 0 0,0
18.09.2018 13:00:00 19,5 14,4 - - 28 15 48 26 WSW 1008,7 65 6 0,0
18.09.2018 12:00:00 18,3 13,6 - - 28 15 - - WSW 1008,4 50 0 0,0
18.09.2018 11:00:00 17,1 12,6 - - 35 19 57 31 WSW 1008,1 45 0 0,0
18.09.2018 10:00:00 17,3 14,0 16,4 15,7 41 22 67 36 WSW 1006,8 35 0 0,0
18.09.2018 09:00:00 16,3 13,8 - - 34 18 54 29 WSW 1005,5 50 0 0,0
18.09.2018 08:00:00 16,6 14,1 - - 39 21 57 31 WSW 1004,2 75 0 0,0
18.09.2018 07:00:00 17,7 14,9 - - 34 18 52 28 SW 1002,5 70 0 0,0
18.09.2018 06:00:00 17,9 15,0 - - 29 16 59 32 SW 1001,7 75 0 0,0
18.09.2018 05:00:00 18,0 15,2 - - 35 19 57 31 SSW 1001,4 65 0 0,0
18.09.2018 04:00:00 18,1 15,8 - - 34 18 57 31 SSW 1001,9 55 0 0,0
18.09.2018 03:00:00 18,6 15,5 - - 37 20 63 34 SSW 1002,1 40 0 0,0
18.09.2018 02:00:00 18,6 15,8 - - 29 16 - - S 1003,0 45 0 0,0
18.09.2018 01:00:00 17,5 14,3 - - 18 10 - - S 1004,0 50 - 0,0
18.09.2018 00:00:00 15,8 12,5 - - 9 5 - - SSE 1005,0 50 0 0,0
17.09.2018 23:00:00 14,6 10,8 - - 8 4 - - SSE 1005,9 60 0 0,0
17.09.2018 22:00:00 15,6 11,0 - - 8 4 - - SE 1006,7 65 0 0,0
17.09.2018 21:00:00 16,9 11,1 - - 11 6 - - SE 1007,3 65 0 0,0
17.09.2018 20:00:00 18,4 11,4 - - 18 10 - - SSE 1007,9 75 6 0,0
17.09.2018 19:00:00 19,7 11,5 - - 21 11 - - S 1008,3 75 60 0,0
17.09.2018 18:00:00 21,1 10,7 - - 18 10 - - S 1009,0 75 60 0,0
17.09.2018 17:00:00 21,9 12,1 - - 22 12 - - SSW 1009,3 75 60 0,0
17.09.2018 16:00:00 22,0 13,2 - - 26 14 - - SSW 1010,5 75 30 0,0
17.09.2018 15:00:00 20,8 16,0 - - 24 13 - - S 1011,7 75 0 0,0
17.09.2018 14:00:00 19,8 15,6 - - 26 14 - - S 1012,5 65 0 0,0
17.09.2018 13:00:00 19,5 16,6 - - 22 12 - - S 1013,1 70 0 0,0
17.09.2018 12:00:00 19,0 16,5 - - 22 12 - - S 1013,7 75 0 0,0
17.09.2018 11:00:00 19,2 16,6 - - 24 13 - - S 1014,2 75 6 0,0
17.09.2018 10:00:00 18,5 16,3 16,5 15,7 21 11 - - S 1014,6 75 0 0,0
17.09.2018 09:00:00 18,2 16,4 - - 16 9 - - SSW 1014,8 75 0 0,0
17.09.2018 08:00:00 17,9 16,3 - - 15 8 - - S 1014,8 75 0 0,0
17.09.2018 07:00:00 17,8 16,3 - - 13 7 - - SSW 1014,7 65 0 0,0
17.09.2018 06:00:00 17,8 16,5 - - 15 8 - - SSW 1014,7 30 0 0,0
17.09.2018 05:00:00 17,9 16,7 - - 15 8 - - S 1015,1 28 0 0,0
17.09.2018 04:00:00 17,8 16,6 - - 13 7 - - S 1015,3 27 0 0,0
17.09.2018 03:00:00 17,8 16,6 - - 13 7 - - S 1015,6 26 0 0,0
17.09.2018 02:00:00 17,9 16,5 - - 16 9 - - S 1015,9 45 0 0,0
17.09.2018 01:00:00 17,7 16,4 - - 16 9 - - S 1016,2 45 - -
17.09.2018 00:00:00 17,8 16,3 - - 16 9 - - SSW 1016,7 40 0 0,0
16.09.2018 23:00:00 17,7 16,5 - - 16 9 - - SSW 1016,8 35 0 0,0
16.09.2018 22:00:00 17,4 16,7 - - 11 6 - - WSW 1016,9 20 0 0,0
16.09.2018 21:00:00 17,8 16,2 - - 16 9 - - SW 1016,9 25 0 0,0
16.09.2018 20:00:00 18,5 15,9 - - 15 8 - - SSW 1016,4 40 0 0,0
16.09.2018 19:00:00 19,1 15,8 - - 21 11 - - SSW 1016,0 50 6 0,0
16.09.2018 18:00:00 19,6 15,8 - - 24 13 - - SSW 1016,0 55 0 0,0
16.09.2018 17:00:00 19,7 15,7 - - 21 11 - - SSW 1016,1 60 0 0,0
16.09.2018 16:00:00 20,1 15,7 - - 21 11 - - SW 1016,3 70 0 0,0
16.09.2018 15:00:00 19,5 15,1 - - 28 15 - - SW 1016,4 65 0 0,0
16.09.2018 14:00:00 19,1 14,8 - - 24 13 - - SSW 1016,8 60 0 0,0
16.09.2018 13:00:00 19,8 14,5 - - 24 13 - - SSW 1016,8 65 24 0,0
16.09.2018 12:00:00 18,8 13,9 - - 22 12 - - SW 1017,2 70 24 0,0
16.09.2018 11:00:00 18,8 14,0 - - 22 12 - - SSW 1017,0 60 18 0,0
16.09.2018 10:00:00 17,3 13,7 15,2 15,7 22 12 - - SSW 1017,4 60 0 0,0
16.09.2018 09:00:00 16,1 13,0 - - 16 9 - - SSW 1017,4 65 6 0,0
16.09.2018 08:00:00 14,0 12,5 - - 11 6 - - S 1017,3 50 0 0,0
16.09.2018 07:00:00 12,2 11,0 - - 5 3 - - E 1017,5 40 0 0,0
16.09.2018 06:00:00 13,0 11,7 - - 15 8 - - S 1017,4 40 0 0,0
16.09.2018 05:00:00 12,9 11,4 - - 5 3 - - S 1018,2 40 0 0,0
16.09.2018 04:00:00 13,1 11,3 - - 5 3 - - S 1018,7 40 0 0,0
16.09.2018 03:00:00 13,6 11,1 - - 15 8 - - S 1019,5 60 0 0,0
16.09.2018 02:00:00 13,5 10,6 - - 11 6 - - S 1020,6 70 0 0,0
16.09.2018 01:00:00 14,1 11,3 - - 15 8 - - SSW 1021,2 60 - 0,0
16.09.2018 00:00:00 14,2 11,3 - - 13 7 - - SSW 1021,7 65 0 0,0
15.09.2018 23:00:00 14,5 11,4 - - 13 7 - - SSW 1021,9 65 0 0,0
15.09.2018 22:00:00 15,0 11,8 - - 13 7 - - SSW 1022,0 60 0 0,0
15.09.2018 21:00:00 15,7 12,0 - - 18 10 - - S 1022,3 60 0 0,0
15.09.2018 20:00:00 15,7 11,3 - - 8 4 - - SSW 1022,5 55 0 0,0
15.09.2018 19:00:00 16,4 11,1 - - 9 5 - - SW 1022,4 70 0 0,0
15.09.2018 18:00:00 17,4 10,9 - - 11 6 - - W 1022,4 75 6 -
15.09.2018 17:00:00 17,7 10,7 - - 13 7 - - W 1022,7 75 0 0,0
15.09.2018 16:00:00 18,0 10,0 - - 21 11 - - W 1023,3 75 12 0,0
15.09.2018 15:00:00 18,9 10,8 - - 21 11 - - W 1023,6 75 18 0,0
15.09.2018 14:00:00 18,7 11,5 - - 22 12 - - SW 1024,0 65 36 0,0
15.09.2018 13:00:00 19,7 12,6 - - 18 10 - - WSW 1024,0 70 30 0,0
15.09.2018 12:00:00 15,8 13,1 - - 13 7 - - WSW 1024,5 22 0 0,0
15.09.2018 11:00:00 16,7 12,6 - - 18 10 - - SW 1024,3 45 42 0,0
15.09.2018 10:00:00 16,3 13,1 14,7 15,7 13 7 - - SW 1024,2 35 54 0,0
15.09.2018 09:00:00 13,8 13,0 - - 13 7 - - SW 1024,1 35 54 0,0
15.09.2018 08:00:00 12,2 12,1 - - 11 6 - - WSW 1023,8 17 36 0,0
15.09.2018 07:00:00 10,2 9,9 - - 5 3 - - WSW 1023,2 12 0 0,0
15.09.2018 06:00:00 9,9 9,5 - - 0 0 - - N 1022,9 9 0 0,0
15.09.2018 05:00:00 10,9 10,2 - - 2 1 - - SW 1022,7 7 0 0,0
15.09.2018 04:00:00 11,8 11,4 - - 8 4 - - WSW 1022,5 15 0 0,0
15.09.2018 03:00:00 11,8 11,4 - - 8 4 - - WSW 1022,5 16 0 0,0
15.09.2018 02:00:00 11,6 11,0 - - 5 3 - - WSW 1022,6 13 0 0,0
15.09.2018 01:00:00 12,3 10,2 - - 8 4 - - W 1022,6 16 - 0,0
15.09.2018 00:00:00 13,6 11,9 - - 11 6 - - W 1022,3 40 0 0,0
14.09.2018 23:00:00 13,6 11,5 - - 15 8 - - WSW 1022,1 45 0 0,0
14.09.2018 22:00:00 14,1 12,4 - - 16 9 - - WSW 1021,5 40 0 0,0
14.09.2018 21:00:00 14,6 12,1 - - 21 11 - - W 1021,3 50 0 0,0
14.09.2018 20:00:00 14,7 12,2 - - 24 13 - - WSW 1020,9 50 0 0,0
14.09.2018 19:00:00 15,9 12,8 - - 29 16 - - WSW 1020,4 45 0 0,0
14.09.2018 18:00:00 15,7 12,4 - - 26 14 50 27 WSW 1020,1 50 18 0,0
14.09.2018 17:00:00 16,2 11,4 - - 31 17 46 25 WSW 1020,2 55 18 0,0

tt = Température de l'air
td = dewpoint
tt -20cm = Température de l'air -20cm
tt -100cm = Température de l'air -100cm
ff = Vitesse du vent
fx = gusts
dd = Direction du vent
ppp = reduced air pressure
vv = visibility
sd = Ensoleillement
rr = Quantités de précipitations

stations d'obs. à proximité